DW7040 Weather Reports


time (UTC)temp
C
wind
direction
speed
KPH
gust
KPH
rain 1hr
cm
rain 24hr
cm
rain mn
cm
humidity
%
barometer
mb
20260505153017 -17 195 9.7 19.3 0.00 0.00 0.00 1006.3
20260505151512 -17 195 14.5 29.0 0.00 0.00 0.00 1006.2
20260505124600 -17 195 14.5 25.7 0.00 0.00 0.00 1006.4
20260505123047 -17 195 8.0 19.3 0.00 0.00 0.00 1006.6
20260505121546 -17 195 6.4 16.1 0.00 0.00 0.00 1006.5
20260505120100 -17 195 8.0 17.7 0.00 0.00 0.00 1006.6
20260505114536 -17 195 11.3 16.1 0.00 0.00 0.00 1006.7
20260505113035 -17 195 11.3 17.7 0.00 0.00 0.00 1006.7
20260505111528 -17 195 9.7 16.1 0.00 0.00 0.00 1006.6
20260505101556 -17 195 6.4 14.5 0.00 0.00 0.00 1006.8
20260505100042 -17 195 9.7 17.7 0.00 0.00 0.00 1006.8
20260505094542 -17 195 8.0 12.9 0.00 0.00 0.00 1006.8
20260505093042 -17 195 11.3 19.3 0.00 0.00 0.00 1006.7
20260505091538 -17 195 4.8 12.9 0.00 0.00 0.00 1006.7
20260505090044 -17 195 6.4 12.9 0.00 0.00 0.00 1006.7
20260505084533 -17 195 6.4 12.9 0.00 0.00 0.00 1006.7
20260505083028 -17 195 3.2 6.4 0.00 0.00 0.00 1006.8
20260505081524 -17 195 3.2 9.7 0.00 0.00 0.00 1006.7
20260505080018 -17 195 1.6 4.8 0.00 0.00 0.00 1006.8
20260505074513 -17 195 0.0 3.2 0.00 0.00 0.00 1006.7
20260505073012 -17 195 1.6 4.8 0.00 0.00 0.00 1006.7
20260505071514 -17 195 0.0 1.6 0.00 0.00 0.00 1006.7
20260505070104 -17 195 0.0 0.0 0.00 0.00 0.00 1006.8
20260505064555 -17 195 0.0 1.6 0.00 0.00 0.00 1006.8
20260505063044 -17 195 0.0 0.0 0.00 0.00 0.00 1006.9
20260505061529 -17 195 0.0 0.0 0.00 0.00 0.00 1006.8
20260505060013 -17 195 0.0 3.2 0.00 0.00 0.00 1006.7
20260505054607 -17 195 1.6 6.4 0.00 0.00 0.00 1006.7
20260505053056 -17 195 3.2 6.4 0.00 0.00 0.00 1006.6
20260505051537 -17 195 3.2 4.8 0.00 0.00 0.00 1006.5
20260505041559 -17 197 0.0 1.6 0.00 0.00 0.00 1006.6
20260505040049 -17 197 0.0 3.2 0.00 0.00 0.00 1006.5
20260505034511 -17 197 1.6 4.8 0.00 0.00 0.00 1006.4
20260505033005 -17 197 3.2 4.8 0.00 0.00 0.00 1006.4
20260505031611 -17 197 1.6 3.2 0.00 0.00 0.00 1006.5
20260505030030 -17 197 0.0 3.2 0.00 0.00 0.00 1006.6
20260505024533 -17 197 1.6 3.2 0.00 0.00 0.00 1006.6
20260505023036 -17 196 0.0 0.0 0.00 0.00 0.00 1006.6
20260505021600 -17 197 0.0 0.0 0.00 0.00 0.00 1006.7
20260505021502 -17 196 0.0 0.0 0.00 0.00 0.00 1006.7
20260505020044 -17 197 0.0 0.0 0.00 0.00 0.00 1006.8
20260505014544 -17 197 1.6 1.6 0.00 0.00 0.00 1006.8
20260505013049 -17 197 0.0 1.6 0.00 0.00 0.00 1007.0
20260505011543 -17 197 3.2 4.8 0.00 0.00 0.00 1006.9
20260505010038 -17 197 1.6 4.8 0.00 0.00 0.00 1007.0
20260505004545 -17 197 1.6 4.8 0.00 0.00 0.00 1007.1
20260505003031 -17 197 0.0 3.2 0.00 0.00 0.00 1007.2
20260505001512 -17 197 0.0 3.2 0.00 0.00 0.00 1007.2
20260505000011 -17 197 0.0 3.2 0.00 0.00 0.00 1007.3
20260504234504 -17 196 0.0 3.2 0.00 0.00 0.00 1007.3
20260504233102 -17 196 0.0 3.2 0.00 0.00 0.00 1007.2
20260504231555 -17 196 1.6 4.8 0.00 0.00 0.00 1007.3
20260504230104 -17 197 3.2 6.4 0.00 0.00 0.00 1007.4
20260504224545 -17 197 1.6 3.2 0.00 0.00 0.00 1007.4
20260504223041 -17 197 0.0 3.2 0.00 0.00 0.00 1007.5
20260504221514 -17 197 0.0 1.6 0.00 0.00 0.00 1007.5
20260504220012 -17 197 1.6 3.2 0.00 0.00 0.00 1007.5
20260504214505 -17 197 0.0 1.6 0.00 0.00 0.00 1007.6
20260504213048 -17 197 0.0 1.6 0.00 0.00 0.00 1007.6
20260504211547 -17 197 0.0 1.6 0.00 0.00 0.00 1007.6
20260504210039 -17 197 0.0 3.2 0.00 0.00 0.00 1007.7
20260504204537 -17 197 0.0 1.6 0.00 0.00 0.00 1007.7
20260504203030 -17 197 0.0 3.2 0.00 0.00 0.00 1007.7
20260504201526 -17 197 0.0 1.6 0.00 0.00 0.00 1007.5
20260504200021 -17 197 1.6 3.2 0.00 0.00 0.00 1007.5
20260504194516 -17 197 1.6 3.2 0.00 0.00 0.00 1007.3
20260504193049 -17 197 3.2 4.8 0.00 0.00 0.00 1007.4
20260504191544 -17 197 4.8 8.0 0.00 0.00 0.00 1007.3
20260504190045 -17 197 4.8 9.7 0.00 0.00 0.00 1007.2
20260504184539 -17 197 4.8 8.0 0.00 0.00 0.00 1007.3
20260504183031 -17 197 4.8 11.3 0.00 0.00 0.00 1007.2
20260504181504 -17 197 9.7 12.9 0.00 0.00 0.00 1007.0
20260504180029 -17 197 8.0 14.5 0.00 0.00 0.00 1007.1
20260504174529 -17 197 4.8 14.5 0.00 0.00 0.00 1007.1
20260504173024 -17 195 4.8 14.5 0.00 0.00 0.00 1007.1
20260504171528 -17 195 9.7 14.5 0.00 0.00 0.00 1007.2